Tracking 21076 objects as of 9-Aug-2020
HD Live streaming from Space Station
objects crossing your sky now
Track the most recent launched group of Starlink satellites

MOS 1B (MOMO 1B)

Track MOS 1B (MOMO 1B) now!
10-day predictions
MOS 1B (MOMO 1B) is classified as:


NORAD ID: 20478
Int'l Code: 1990-013A
Perigee: 913.0 km
Apogee: 920.0 km
Inclination: 99.4 °
Period: 103.2 minutes
Semi major axis: 7287 km
RCS: 3.7354 m2 (large)
Launch date: February 7, 1990
Source: Japan (JPN)
Launch site: TANEGASHIMA SPACE CENTER (TNSTA)
aabbcc
Your satellite tracking list
Your tracking list is empty




NASA's NSSDC Master Catalog

Two Line Element Set (TLE):
1 20478U 90013A   20222.02407842 -.00000206  00000-0 -11740-3 0  9995
2 20478  99.4224 219.1323 0004795 220.7161 139.3641 13.95508883473975
Source of the keplerian elements: AFSPC